Погода в Баргузине

Погода в Баргузине : погода сейчас, прогноз погоды и архив. Всё, что Вы хотите узнать о погоде в Баргузине!

Поиск расширенной информации на нашем сайте:

Другие новости

Новости СМИ2

Главная страница сайта

Новости сайта

02.10.2013

Напоминаем, что на нашем новом сайте вы можете получить высокодетализированные прогнозы погоды по пунктам России, СНГ и мира (включающие важные для авиации метеовеличины, такие как направление и скорость ветра, видимость, явления погоды, количество и форма облачности, нижняя и верхняя граница облачности), а также ознакомиться с разнообразными материалами по авиационной метеорологии и подборкой полезных ссылок на эту тему.

Сайт Метеоцентр.Азия посвящён разработке технологий оптимизации авиаметеорологического обслуживания, включая проектирование и перспективное создание нескольких автоматизированных авиаметеорологических систем:
- система выпуска высокодетальных прогностических карт явлений погоды для нижнего воздушного пространства по России и ближнему зарубежью;
- система верификации прогнозов TAF (выпускаемых синоптиками официальных АМСГ РФ и ближнего зарубежья) и AUTOTAF (выпускаемых сайтом Метеоцентр.Азия) - выявление ошибок, онлайн-сопоставление с фактической погодой METAR, автоматическое внесение коррективов в прогнозы при резком отклонении фактической погоды от прогноза, подсчёт оправдываемости прогнозов по элементам и в целом;
- система обработки, анализа и отображения авиаметеорологической информации для применения провайдерами метеорологической информации.

Рекомендуем: Продам сайт smssend.

Погода в Баргузине - сегодня

Время (UTC), дата Ветер
(°,м/с) 
Видим.   Явления Облачность Т
(°С)
Тd
(°С)
f(%) Тe
(°С)
Pmin
(гПа)
dP
(гПа)
Po
(мм)
O2
(г/м3)
Тmin Tmax R s Состояние
почвы
18 27.04.17 270 (З) н/о    ясно 
+6.2 -0.2 64 +5  1013  -1.9  716  282           
21 27.04.17 270 (З) н/о    6/0 верхняя 
[Ci fib]
+4.5 -0.1 72 +4  1011.7  -1.5  715  283           
00 28.04.17 260 (З) 20000 м    10/0 верхняя 
[Ci fib]
+7.8 +0.2 59 +8  1009.2  -1.8  713  279  +3.9         
03 28.04.17 220 (ЮЗ) 20000 м    3/0 верхняя 
[Ci fib]
+17.5 -3 24 +18  1004.6  -2.4  712  270           
06 28.04.17 270 (З) 2{11}  20000 м    10/0 средняя, верхняя 
[Ac trans|Ci fib]
+22.3 -5.2 15 +22  1000.1  -3.4  709  265           
09 28.04.17 230 (ЮЗ) 2{12}  10 км  дым  10/6 600 м кучево-дожд., средняя 
[Cb cap|Ac trans]
+21.6 -6.1 15 +22  997.5  -2.6  707  265           
12 28.04.17 280 (З) 2{10}  10 км  дым  10/4 1000 м кучево-дожд., средняя, верхняя 
[Cb cap|Ac trans|Ci fib]
+18.6 -0.4 28 +20  1000.1  709  267    +22.4       
15 28.04.17 280 (З) н/о  дым  ясно 
+15.6 -4.6 25 +16  1003.3  2.3  710  271           
18 28.04.17 300 (СЗ) 5-12{14}  н/о  дым  ясно 
+12.6 -10.3 19 +12  1004.8  0.8  711  275           
21 28.04.17 180 (Ю) 3{15}  н/о  дым  ясно 
+10 -13.6 17 +10  1008.4  2.9  713  278           
00 29.04.17 220 (ЮЗ) 3{11}  20000 м    10/0 верхняя 
[Ci fib]
+10.9 -12.5 18 +11  1011.2  2.8  715  278  +9.1         
03 29.04.17 290 (З) 6-12{14}  20000 м    6/0 верхняя 
[Ci fib]
+11.9 -12.4 17 +11  1010.4  -0.6  715  277           
06 29.04.17 280 (З) 6-12{17}  20000 м    10/0 верхняя 
[Ci fib]
+12.8 -12.8 15 +12  1009.4  -0.7  714  276           
09 29.04.17 270 (З) 2{13}  20000 м    10/0 средняя, верхняя 
[Ac trans|Ci fib]
+13.1 -17 11 +14  1009.1  -0.2  714  276           
12 29.04.17 260 (З) 2{10}  20000 м    10/4 1000 м средняя, верхняя 
[Sc|Ac trans|Ci fib]
+10.4 -16 14 +11  1010.9  1.1  715  279    +13.7       
15 29.04.17 250 (З) н/о    ясно 
+5.3 -10.5 31 +5  1012  715  284           
18 29.04.17 280 (З) н/о    ясно 
+3.4 -8.6 41 +2  1012.4  715  285           
21 29.04.17 260 (З) н/о    10/0 средняя, верхняя 
[Ac trans|Ci fib]
+5.5 -8.6 35 +6  1011.9  715  283           
00 30.04.17 280 (З) 10 км  дым  10/6 600 м кучево-дожд., средняя, верхняя 
[Cb cap|Ac trans|Ci fib]
+7.6 -3.2 46 +8  1011.9  0.4  715  281  +2.8         
03 30.04.17 230 (ЮЗ) 10 км  дым  10/3 1000 м кучево-дожд., средняя, верхняя 
[Cb cap|Ac trans|Ci fib]
+13.8 +2 45 +14  1010.5  715  274           
06 30.04.17 270 (З) 10 км  дым  3/3 1000 м 
[Cu hum]
+16.6 +0.5 34 +17  1008.9  -1  715  271           
09 30.04.17 220 (ЮЗ) 10 км  дым  10/0 средняя, верхняя 
[Ac trans|Ci fib]
+17.4 -0.1 31 +18  1007  -1.7  713  270           
12 30.04.17 280 (З) 10 км  дым  10/4 1000 м средняя, верхняя 
[Sc|Ac trans|Ci fib]
+13.3 +1.5 45 +15  1007.4  -0.4  713  274    +17.8       
15 30.04.17 260 (З) н/о  дым  10/3 1000 м средняя 
[Sc|Ac und]
+11.3 +2.3 54 +12  1007.4  -0.4  713  275           
18 30.04.17 260 (З) н/о  дым  10/0 средняя, верхняя 
[Ac trans|Ci fib]
+8.5 +5.3 80 +9  1008.5  0.5  713  278           
Время (UTC), дата Ветер
(°,м/с) 
Видим.   Явления Облачность Т
(°С)
Тd
(°С)
f(%) Тe
(°С)
Pmin
(гПа)
dP
(гПа)
Po
(мм)
O2
(г/м3)
Тmin Tmax R s Состояние
почвы

Для получения пояснительной информации подведите курсор к названию столбца.

ПОГОДА в Баргузине - архив

Всё, что Вы хотите узнать о погоде в Баргузине - удобно и подробно!

Выберите нужную дату (начиная с 1 января 2015* года) и нажмите кнопку "Найти".
Будут отображены архивные сводки погоды по пункту Баргузин, начиная с указанной даты.


Отображать данные в формате CSV (для использования в таблицах Excel)


Внимание! Наш архив погоды предназначен исключительно для личного некоммерческого использования в познавательных целях. Если Вам необходимы официальные справки о состоянии погоды (для производственных, юридических, коммерческих и т.п. целей), обращайтесь в органы Росгидромета.

*Примечание: данная дата относится к архиву по метеостанциям СССР (Россия, СНГ, Балтия).
Архив по метеостанциям Зарубежной Европы и Азии (кроме Китая) хранится 10 дней, по другим регионам земного шара (Китай, Африка, Америка, Австралия, Океания) - 1 день.

Баргузин - район местоположения метеостанции


Название, широта, долгота, высота метеостанции:
Баргузин 53.6°ш. 109.6°д. 489 м над ур. моря [Российская Федерация]

Дополнительная информация

В oтличие oт бoльшинства пoгoдных сайтoв мы публикуем пoдрoбную метеoинфoрмацию в детальнoм прoфессиoнальнoм фoрмате.

Характеристики температуры и влажнoсти вoздуха измеряются на высoте 2 м в тени вдали oт зданий и деревьев.
Скoрoсть ветра измеряется на высoте 10 м (на урoвне рoста челoвека скoрoсть ветра ниже в 1.5-2 раза). Если метеoстанция нахoдится в гoрoде или в лесу, тo скoрoсть ветра занижена на 2-4 м/с пo сравнению с oткрытым местoм. Скoрoсть ветра над акватoриями крупных рек и oзёр, а также на вершинах хoлмoв на 2-5 м/с выше, чем в oбычных услoвиях.
Атмoсфернoе давление в разных тoчках местнoсти мoжет значительнo oтличаться oт давления на метеoстанции, в зависимoсти oт услoвий рельефа (при пoдъёме на 10 м давление пoнижается примернo на 1 мм рт.ст.).